カタログに戻る

JAY-D1

運用中軍事SSO
NORAD 62669·PAYLOAD·🇨🇦 Canada

打ち上げ Jan 14, 2025 から Vandenberg Space Force Base

Loading…

次のパス (今後24時間)

TLE

最新Source: Space-Track

元期: Sep 14, 2026, 13:27 UTC

1 62669U 25009BN  26257.56075165  .00002859  00000-0  12507-3 0  9994
2 62669  97.3972 335.5819 0006054  42.5106 317.6598 15.22859391149979

AllMySatでJAY-D1をリアルタイム追跡

Download on the App Store